sat.trackr.live / text

‹ back to catalog

ONEWEB-0363

NORAD 49289 · 2021-090L

PAYLOAD ACTIVE UNKNOWN

§ Identity

Operator
Country
UK
Launch date
2021-10-14
Launch site
VOSTO
Launch vehicle
Mass (kg)
RCS (m²)

Purposes: comms

External: N2YO · Heavens-Above · Gunter

§ Orbital elements

Epoch: 2026-09-12T01:22:09.196032Z

Period
109.03 min
Inclination
87.9134°
Eccentricity
0.0002236
Mean motion
13.20771149 rev/d
Perigee alt
1,180.1 km
Apogee alt
1,183.5 km
Semi-major
7,559.9 km
B*
6.3168e-5
RAAN
257.1113°
Arg perigee
95.3260°
Mean anomaly
264.8128°
Rev number
24,177

§ Raw data

ONEWEB-03631 49289U 21090L   26255.05705088  .00000039  00000+0  63168-4 0  99962 49289  87.9134 257.1113 0002236  95.3260 264.8128 13.20771149241771

JSON: /api/v1/satellites/49289 · /tle

For live sub-satellite position, see the globe view (requires WebGL).

§ Visibility from observer

Set your observer location to see the next 7 days of passes ≥ 10°. The values pass through the URL so the page stays shareable.

No JS? Fill the form by hand. The geolocation button needs JavaScript.